Regional Weather Roundup
Issued by NWS

Home | Current Version | Previous Version | Graphics & Text | Print | Product List | Glossary Off
Versions: 1 2 3 4 5 6 7 8 9 10 11 12 13 14 15 16 17 18 19 20 21 22 23 24 25 26 27 28 29 30 31 32 33 34 35 36 37 38 39 40 41 42 43 44 45 46 47 48 49 50

000
ASUS43 KIND 300309
RWRIN

WEATHER ROUNDUP FOR INDIANA
NATIONAL WEATHER SERVICE INDIANAPOLIS IN
1100 PM EDT THU SEP 29 2016

NOTE: "FAIR" INDICATES FEW OR NO CLOUDS BELOW 12,000 FEET WITH NO
SIGNIFICANT WEATHER AND/OR OBSTRUCTIONS TO VISIBILITY.

* - STATION DOES NOT REPORT WEATHER SUCH AS PRECIPITATION OR FOG.

+ - STATION NOT QUALITY CONTROLLED BY THE NATIONAL WEATHER SERVICE.
    USE DATA WITH CAUTION...ESPECIALLY DEWPOINT AND RELATIVE
    HUMIDITY OBSERVATIONS.

INZ001>003-010>013-019-020-300400-
NORTHWEST INDIANA

CITY           SKY/WX    TMP DP  RH WIND       PRES   REMARKS
GARY /AIRPORT/ CLOUDY    63  61  94 NE12G23   30.21S
KNOX *+        CLOUDY    59  45  58 N7        30.17S
LA PORTE +     LGT RAIN N/A N/A N/A NE9       30.19F
MICHIGAN CITY+ CLOUDY    59  59 100 CALM      30.20F
MONTICELLO +   LGT RAIN  61  56  84 NE8       30.14S
RENSSELAER +   RAIN      61  59  94 N10G16    30.16S
VALPARAISO     LGT RAIN  59  57  93 N5        30.19S

$$

LMZ046-743>745-300400-
SOUTHERN LAKE MICHIGAN

STATION/POSITION TIME  TEMP    WIND        PRES    WAVE
                       AIR SEA DIR/SP/G            HT
                 (UTC) (F)     (DEG/KT/KT) (MB)    (FT)
BURNS HARBOR     0240   62      40/ 20/ 24 1022.7S
MICHIGAN CITY    0240   60      20/ 19/ 19   N/A
5NW MICH CITY    0300   62 65   40/ 16/ 21   N/A     6

$$

INZ004-005-014>016-021>024-300400-
NORTH CENTRAL INDIANA

CITY           SKY/WX    TMP DP  RH WIND       PRES   REMARKS
GOSHEN         LGT RAIN  60  56  86 N12G18    30.15F
LOGANSPORT +   HVY RAIN  59  59 100 N9        30.14S
PERU/GRISSOM   CLOUDY    61  61 100 N7        30.09F
ROCHESTER +    CLOUDY    61  61 100 N7        30.14F
SOUTH BEND     LGT RAIN  58  57  97 NE12      30.18F
WARSAW +       CLOUDY    59  59 100 N8        30.13F

$$

INZ006>009-017-018-025>027-300400-
NORTHEAST INDIANA

CITY           SKY/WX    TMP DP  RH WIND       PRES   REMARKS
ANGOLA *+        N/A     59  46  63 NE9       30.15S
AUBURN +       CLOUDY    61  57  88 NE8       30.14R
FORT WAYNE     CLOUDY    61  58  90 NE15G21   30.11F
HUNTINGTON +   CLOUDY    60  58  96 N6        30.10F
KENDALLVILLE + CLOUDY    59  58  98 NE9       30.14F

$$

INZ028-029-035-036-043>045-051>053-300400-
WEST CENTRAL INDIANA

CITY           SKY/WX    TMP DP  RH WIND       PRES   REMARKS
CRAWFORDSVL +  MOCLDY    59  54  84 NE6       30.12F
GREENCASTLE +  MOCLDY    59  55  88 N3        30.12S
LAFAYETTE      LGT RAIN  59  56  89 N3        30.13S
TERRE HAUTE    CLOUDY    59  54  83 CALM      30.11F

$$

INZ030>032-037>040-046>048-054>057-064-065-300400-
CENTRAL INDIANA

CITY           SKY/WX    TMP DP  RH WIND       PRES   REMARKS
FRANKFORT +    CLOUDY    62  57  84 NE3       30.14S
GREENWOOD *+   CLOUDY    61  57  88 CALM      30.10F
INDIANAPOLIS   CLOUDY    62  54  74 NE9       30.10S
-EAGLE CREEK   LGT RAIN  62  55  77 CALM      30.10S
KOKOMO *+      CLOUDY    61  57  88 N7        30.12F
MARION +       CLOUDY    59  57  94 CALM      30.11F
MT COMFORT *+  CLOUDY    59  55  88 CALM      30.10F
SHELBYVILLE    CLOUDY    59  54  83 N5        30.09S
ZIONSVILLE +   LGT RAIN  60  55  82 N5        30.11F

$$

INZ033-034-041-042-049-050-058-059-300400-
EAST CENTRAL INDIANA

CITY           SKY/WX    TMP DP  RH WIND       PRES   REMARKS
MUNCIE         CLOUDY    60  57  89 N6        30.10S

$$

INZ060-061-067>069-081>083-085>088-300400-
SOUTHWEST INDIANA

CITY           SKY/WX    TMP DP  RH WIND       PRES   REMARKS
EVANSVILLE     CLEAR     58  52  80 W3        30.11F
HUNTINGBURG *+   N/A     54  52  94 CALM      30.10F
WASHINGTON +   CLOUDY    57  57  99 MISG      30.10S

$$

INZ062-063-066-070>080-084-089>092-300400-
SOUTH CENTRAL AND SOUTHEAST INDIANA

CITY           SKY/WX    TMP DP  RH WIND       PRES   REMARKS
BLOOMINGTON    PTCLDY    56  53  90 CALM      30.09F
MADISON *+     CLOUDY    55  54  94 CALM      30.10S
SEYMOUR +      CLOUDY    59  55  88 CALM      30.08F

$$




USA.gov is the U.S. government's official web portal to all federal, state and local government web resources and services.